Date String (YYYY-MM-DD hh:mm:ss) UTC,Instrument flags,Ambient pressure (hPa),Sample flow (lpm),Bypass flow (lpm),Sample temperature (°C),Ambient temperature (°C),ASC tube jacket temperature (°C),LED temperature (°C),Box temperature (°C),Sample RH (%),Span deviation,Mass concentration (μg/m³),Mass concentration (μg/m³),Mass concentration (μg/m³)
DateTimeUTC,F1_M11,P_M11,Q1_M11,Q2_M11,T1_M11,T2_M11,T3_M11,T4_M11,T5_M11,U1_M11,ZSPAN_M11,X0_M11,X2_M11,X1_M11
2022-07-05 18:00:00,,0826.2,5.00,0.00,29.4,27.8,00.0,38.2,31.3,24.5,0000.0,0013.00,0004.78,0003.85
2022-07-05 18:01:00,,0826.3,4.99,0.00,29.5,28.0,00.0,38.3,31.4,24.8,0000.0,0013.48,0004.73,0003.82
2022-07-05 18:02:00,,0826.3,5.00,0.00,29.5,27.8,00.0,38.2,31.3,24.9,0000.0,0014.25,0004.69,0003.79
2022-07-05 18:03:00,,0826.3,5.00,0.00,29.4,27.3,00.0,38.2,31.2,24.8,0000.0,0013.97,0004.66,0003.75
2022-07-05 18:04:00,,0826.2,5.01,0.00,29.3,27.1,00.0,38.2,31.1,24.7,0000.0,0012.90,0004.56,0003.72
2022-07-05 18:05:00,,0826.3,5.01,0.00,29.3,27.2,00.0,38.2,31.0,24.5,0000.0,0012.49,0004.50,0003.69
2022-07-05 18:06:00,,0826.2,5.01,0.00,29.3,27.4,00.0,38.1,31.1,24.1,0000.0,0013.07,0004.42,0003.65
2022-07-05 18:07:00,,0826.2,5.00,0.00,29.3,27.5,00.0,38.1,31.1,24.9,0000.0,0013.38,0004.40,0003.63
2022-07-05 18:08:00,,0826.3,5.00,0.00,29.3,27.8,00.0,38.1,31.2,25.0,0000.0,0012.87,0004.37,0003.61
2022-07-05 18:09:00,,0826.2,5.00,0.00,29.4,28.0,00.0,38.2,31.3,25.2,0000.0,0012.53,0004.36,0003.60
2022-07-05 18:10:00,,0826.2,4.99,0.00,29.4,27.7,00.0,38.1,31.2,25.2,0000.0,0011.95,0004.39,0003.60
2022-07-05 18:11:00,,0826.2,5.00,0.00,29.3,27.1,00.0,38.1,31.0,24.7,0000.0,0012.42,0004.39,0003.60
2022-07-05 18:12:00,,0826.2,5.00,0.00,29.2,27.0,00.0,38.1,30.9,24.5,0000.0,0012.31,0004.36,0003.58
2022-07-05 18:13:00,,0826.2,5.00,0.00,29.2,27.1,00.0,38.0,30.9,24.6,0000.0,0011.48,0004.35,0003.56
2022-07-05 18:14:00,,0826.2,5.00,0.00,29.2,27.2,00.0,38.0,31.0,24.6,0000.0,0011.83,0004.29,0003.55
2022-07-05 18:15:00,,0826.2,5.00,0.00,29.2,27.4,00.0,38.0,31.1,24.3,0000.0,0012.03,0004.29,0003.53
2022-07-05 18:16:00,,0826.2,5.01,0.00,29.2,27.7,00.0,38.0,31.2,24.5,0000.0,0013.86,0004.32,0003.53
2022-07-05 18:17:00,,0826.2,5.00,0.00,29.3,27.9,00.0,38.0,31.2,24.6,0000.0,0013.16,0004.34,0003.55
2022-07-05 18:18:00,,0826.2,5.01,0.00,29.3,27.6,00.0,38.0,31.2,25.0,0000.0,0012.73,0004.34,0003.55
2022-07-05 18:19:00,,0826.2,5.00,0.00,29.2,27.1,00.0,38.0,30.9,25.7,0000.0,0013.12,0004.35,0003.55
2022-07-05 18:20:00,,0826.2,5.00,0.00,29.1,26.9,00.0,38.0,30.9,26.2,0000.0,0013.47,0004.34,0003.55
2022-07-05 18:21:00,,0826.2,5.00,0.00,29.1,27.0,00.0,38.0,30.9,26.8,0000.0,0013.89,0004.36,0003.55
2022-07-05 18:22:00,,0826.4,5.00,0.00,29.1,27.1,00.0,37.9,30.9,26.8,0000.0,0013.78,0004.41,0003.57
2022-07-05 18:23:00,,0826.4,5.00,0.00,29.1,27.3,00.0,37.9,31.0,26.4,0000.0,0013.70,0004.45,0003.59
2022-07-05 18:24:00,,0826.5,5.00,0.00,29.1,27.6,00.0,37.9,31.1,26.4,0000.0,0014.22,0004.49,0003.61
2022-07-05 18:25:00,,0826.5,5.00,0.00,29.2,27.8,00.0,38.0,31.2,25.4,0000.0,0013.91,0004.50,0003.63
2022-07-05 18:26:00,,0826.4,5.00,0.00,29.2,28.0,00.0,38.0,31.3,25.3,0000.0,0014.39,0004.54,0003.67
2022-07-05 18:27:00,,0826.5,5.00,0.00,29.3,28.1,00.0,38.0,31.3,26.3,0000.0,0013.56,0004.58,0003.70
2022-07-05 18:28:00,,0826.5,4.99,0.00,29.3,27.7,00.0,37.9,31.3,27.1,0000.0,0013.62,0004.67,0003.73
2022-07-05 18:29:00,,0826.6,5.00,0.00,29.3,27.3,00.0,37.9,31.2,26.9,0000.0,0013.74,0004.72,0003.75
2022-07-05 18:30:00,,0826.7,5.01,0.00,29.2,27.2,00.0,37.9,31.1,27.2,0000.0,0013.25,0004.72,0003.77
2022-07-05 18:31:00,,0826.7,5.00,0.00,29.2,27.3,00.0,37.9,31.1,27.2,0000.0,0013.08,0004.77,0003.80
2022-07-05 18:32:00,,0826.7,4.99,0.00,29.2,27.5,00.0,37.9,31.1,27.0,0000.0,0013.02,0004.76,0003.82
2022-07-05 18:33:00,,0826.7,5.02,0.00,29.2,27.6,00.0,37.9,31.1,26.8,0000.0,0012.98,0004.74,0003.85
2022-07-05 18:34:00,,0826.8,5.01,0.00,29.2,27.8,00.0,37.9,31.2,27.3,0000.0,0013.31,0004.77,0003.89
2022-07-05 18:35:00,,0826.8,4.99,0.00,29.3,28.0,00.0,37.9,31.2,27.1,0000.0,0013.19,0004.79,0003.92
2022-07-05 18:36:00,,0826.8,5.01,0.00,29.3,28.1,00.0,37.9,31.3,26.9,0000.0,0013.51,0004.84,0003.95
2022-07-05 18:37:00,,0827.0,5.00,0.00,29.3,27.9,00.0,37.9,31.3,26.2,0000.0,0013.28,0004.90,0003.98
2022-07-05 18:38:00,,0826.8,5.00,0.00,29.3,27.3,00.0,37.9,31.2,26.2,0000.0,0012.38,0004.92,0004.00
2022-07-05 18:39:00,,0826.8,5.00,0.00,29.3,26.9,00.0,37.9,31.1,24.7,0000.0,0012.05,0004.79,0003.95
2022-07-05 18:40:00,,0826.9,5.00,0.00,29.2,26.9,00.0,37.9,31.0,23.4,0000.0,0011.84,0004.63,0003.85
2022-07-05 18:41:00,,0826.9,5.00,0.00,29.2,27.0,00.0,37.9,31.0,23.2,0000.0,0011.84,0004.51,0003.72
2022-07-05 18:42:00,,0826.8,4.99,0.00,29.2,27.2,00.0,37.9,31.0,22.7,0000.0,0011.65,0004.34,0003.59
2022-07-05 18:43:00,,0826.8,5.01,0.00,29.2,27.4,00.0,37.9,31.0,22.8,0000.0,0011.02,0004.18,0003.46
2022-07-05 18:44:00,,0826.8,4.99,0.00,29.2,27.6,00.0,37.9,31.1,22.8,0000.0,0010.57,0004.00,0003.31
2022-07-05 18:45:00,,0826.8,5.00,0.00,29.2,27.8,00.0,37.9,31.2,22.7,0000.0,0009.69,0003.82,0003.14
2022-07-05 18:46:00,,0826.9,5.00,0.00,29.2,28.0,00.0,37.9,31.2,22.6,0000.0,0008.72,0003.63,0002.89
2022-07-05 18:47:00,,0827.2,5.00,0.00,29.3,28.1,00.0,37.9,31.3,22.7,0000.0,0007.90,0003.47,0002.62
2022-07-05 18:48:00,,0827.0,5.00,0.00,29.3,28.2,00.0,38.0,31.3,22.6,0000.0,0007.47,0003.28,0002.31
2022-07-05 18:49:00,,0826.9,4.99,0.00,29.3,27.8,00.0,37.9,31.3,22.6,0000.0,0007.19,0003.07,0002.02
2022-07-05 18:50:00,,0826.8,5.00,0.00,29.3,27.1,00.0,37.9,31.2,22.8,0000.0,0006.85,0002.92,0001.85
2022-07-05 18:51:00,,0826.9,5.00,0.00,29.3,26.8,00.0,37.9,31.1,22.9,0000.0,0006.63,0002.86,0001.78
2022-07-05 18:52:00,,0826.8,5.00,0.00,29.2,26.9,00.0,37.9,31.0,23.2,0000.0,0006.32,0002.79,0001.74
2022-07-05 18:53:00,,0826.8,5.00,0.00,29.2,27.1,00.0,37.9,31.0,23.6,0000.0,0006.13,0002.77,0001.74
2022-07-05 18:54:00,,0826.8,5.00,0.00,29.2,27.2,00.0,37.9,31.0,24.0,0000.0,0005.95,0002.74,0001.73
2022-07-05 18:55:00,,0826.9,5.01,0.00,29.2,27.5,00.0,37.9,31.0,24.2,0000.0,0006.19,0002.73,0001.71
2022-07-05 18:56:00,,0826.9,5.00,0.00,29.2,27.6,00.0,37.9,31.1,24.5,0000.0,0006.68,0002.73,0001.73
2022-07-05 18:57:00,,0827.0,5.00,0.00,29.2,27.8,00.0,37.9,31.2,24.5,0000.0,0006.70,0002.76,0001.74
2022-07-05 18:58:00,,0826.8,5.00,0.00,29.2,28.0,00.0,37.9,31.2,24.5,0000.0,0006.45,0002.71,0001.74
2022-07-05 18:59:00,,0826.7,4.99,0.00,29.3,28.1,00.0,37.9,31.3,24.3,0000.0,0006.31,0002.69,0001.75
